Regional Weather Roundup
Issued by NWS

Home | Current Version | Previous Version | Text Only | Print | Product List | Glossary On
Versions: 1 2 3 4 5 6 7 8 9 10 11 12 13 14 15 16 17 18 19 20 21 22 23 24 25 26 27 28 29 30 31 32 33 34 35 36 37 38 39 40 41 42 43 44 45 46 47 48 49 50
000
ASCA44 KEWX 200920
RWRMX

LATIN AMERICA AND CARIBBEAN REGIONAL WEATHER ROUNDUP
NATIONAL WEATHER SERVICE AUSTIN/SAN ANTONIO TX
400 AM CDT WED AUG 20 2014

NOTE: "FAIR" INDICATED FEW OR NO CLOUDS BELOW 12,000 FEET WITH NO
SIGNIFICANT WEATHER AND/OR OBSTRUCTIONS TO VISIBILITY.

BAJA CALIFORNIA

CITY           SKY/WX    TMP DP  RH WIND       PRES   REMARKS
TIJUANA        CLOUDY    66  57  72 CALM      29.93R

NORTHWESTERN MEXICO

CITY           SKY/WX    TMP DP  RH WIND       PRES   REMARKS

NORTHEASTERN MEXICO

CITY           SKY/WX    TMP DP  RH WIND       PRES   REMARKS
MONTERREY      CLEAR     79  66  65 E9        29.86S
REYNOSA        CLEAR     77  72  83 SE7       29.87F
CD. VICTORIA   CLEAR     79  72  78 S12       29.88S

WESTERN MEXICO

CITY           SKY/WX    TMP DP  RH WIND       PRES   REMARKS
DEL BAJIO      CLOUDY    63  61  94 CALM      30.27F
GUADALAJARA      N/A    N/A N/A N/A MISG        N/A
MAZATLAN       MOCLDY    73  72  94 N7        29.84F
P. VALLARTA    CLOUDY    75  72  88 NE5       29.88F
ZACATECAS      MOCLDY    59  50  72 S9        30.26S

CENTRAL MEXICO

CITY           SKY/WX    TMP DP  RH WIND       PRES   REMARKS
MEXICO CITY    CLOUDY    59  54  82 NE5       30.30F
MORELIA        PTCLDY    59  57  94 CALM      30.22F
QUERETARO      PTCLDY    59  50  72 NE5       30.28F
S. LUIS POTOSI PTCLDY    59  52  77 CALM      30.21F
TOLUCA         PTCLDY    48  45  87 CALM      30.37F

SOUTHERN MEXICO

CITY           SKY/WX    TMP DP  RH WIND       PRES   REMARKS
ACAPULCO       PTCLDY    81  75  83 N2        29.82F

YUCATAN PENINSULA

CITY           SKY/WX    TMP DP  RH WIND       PRES   REMARKS
CANCUN         PTCLDY    82  79  89 E3        29.96F HX  93
MERIDA         PTCLDY    75  75 100 E8        29.95S
TAPACHULA      MOCLDY    77  73  88 CALM      29.86F

CENTRAL AMERICA

CITY           SKY/WX    TMP DP  RH WIND       PRES   REMARKS
MANAGUA        PTSUNNY   75  72  88 SE7       29.83S

CARIBBEAN

CITY           SKY/WX    TMP DP  RH WIND       PRES   REMARKS
ARUBA          PTCLDY    82  75  78 E14       29.86S
CURACAO        PTCLDY    81  75  83 SE8       29.89S
KINGSTON       PTCLDY    82  75  78 NW6       29.92S
NASSAU         PTCLDY    82  79  89 CALM      30.02  HX  93
SAN JUAN       PTCLDY    79  75  89 CALM      29.98R
SANTO DOMINGO  PTCLDY    75  72  88 N6        29.94S
ST. CROIX      CLEAR     79  75  89 NE7       29.97R
ST. MAARTEN    PTCLDY    82  75  78 E10       29.94S

$$



USA.gov is the U.S. government's official web portal to all federal, state and local government web resources and services.